NUSANTARA TIGA (SATRIA)

Last updated on Sun Jun 21 2026 00:03:09 GMT+0000 (Coordinated Universal Time)

1 57045U 23086A 26171.20702740 -.00000239 00000+0 00000+0 0 9992 2 57045 0.0340 356.2217 0003720 352.3070 140.4223 1.00272989 9797
UTC large
Height (km)
Speed (km/s)
/
Latitude / Longitude
Inclination (degrees)
Orbital Period (minutes)
Azimuth
Elevation
Range (km)
Doppler Factor

Next 0 passes for location: London (51.5072 / 0.1276)

No passes found over London.
NUSANTARA TIGA (SATRIA)